Time,TemperatureF,DewpointF,PressureIn,WindDirection,WindDirectionDegrees,WindSpeedMPH,WindSpeedGustMPH,Humidity,HourlyPrecipIn,Conditions,Clouds,dailyrainin,SoftwareType,DateUTC
2013-09-18 00:00:00,44.6,43.8,30.23,ENE,72,0.0,0.0,97,0.00,,,0.01,WeatherLinkWUIModule,2013-09-18 04:00:00,
2013-09-18 00:10:00,45.0,43.9,30.23,ENE,72,0.0,0.0,96,0.00,,,0.01,WeatherLinkWUIModule,2013-09-18 04:10:00,
2013-09-18 00:20:00,45.4,44.1,30.23,ENE,72,0.0,0.0,95,0.00,,,0.01,WeatherLinkWUIModule,2013-09-18 04:20:00,
2013-09-18 00:30:00,45.3,44.0,30.23,ENE,72,0.0,0.0,95,0.00,,,0.01,WeatherLinkWUIModule,2013-09-18 04:30:00,
2013-09-18 00:40:00,45.5,43.9,30.23,ENE,72,0.0,0.0,94,0.00,,,0.00,WeatherLinkWUIModule,2013-09-18 04:40:00,
2013-09-18 00:50:00,45.5,43.9,30.23,ENE,72,0.0,0.0,94,0.00,,,0.00,WeatherLinkWUIModule,2013-09-18 04:50:00,
2013-09-18 01:00:00,45.5,43.9,30.23,ENE,72,0.0,0.0,94,0.00,,,0.00,WeatherLinkWUIModule,2013-09-18 05:00:00,
2013-09-18 01:10:00,45.5,43.6,30.23,ENE,72,0.0,0.0,93,0.00,,,0.00,WeatherLinkWUIModule,2013-09-18 05:10:00,
2013-09-18 01:20:00,45.3,43.7,30.22,ENE,72,0.0,0.0,94,0.00,,,0.00,WeatherLinkWUIModule,2013-09-18 05:20:00,
2013-09-18 01:30:00,45.2,43.6,30.22,ENE,72,0.0,0.0,94,0.00,,,0.00,WeatherLinkWUIModule,2013-09-18 05:30:00,
2013-09-18 01:40:00,45.1,43.5,30.22,ENE,72,0.0,1.0,94,0.00,,,0.00,WeatherLinkWUIModule,2013-09-18 05:40:00,
2013-09-18 01:50:00,44.9,43.3,30.22,ENE,72,0.0,1.0,94,0.00,,,0.00,WeatherLinkWUIModule,2013-09-18 05:50:00,
2013-09-18 02:00:00,44.6,43.0,30.22,ENE,72,0.0,1.0,94,0.00,,,0.00,WeatherLinkWUIModule,2013-09-18 06:00:00,
2013-09-18 02:10:00,44.0,42.4,30.21,ENE,72,0.0,0.0,94,0.00,,,0.00,WeatherLinkWUIModule,2013-09-18 06:10:00,
2013-09-18 02:20:00,43.8,42.5,30.21,ENE,72,0.0,0.0,95,0.00,,,0.00,WeatherLinkWUIModule,2013-09-18 06:20:00,
2013-09-18 02:30:00,43.8,42.5,30.21,ENE,72,0.0,0.0,95,0.00,,,0.00,WeatherLinkWUIModule,2013-09-18 06:30:00,
2013-09-18 02:40:00,43.8,42.5,30.21,ENE,72,0.0,0.0,95,0.00,,,0.00,WeatherLinkWUIModule,2013-09-18 06:40:00,
2013-09-18 02:50:00,43.7,42.4,30.21,ENE,72,0.0,0.0,95,0.00,,,0.00,WeatherLinkWUIModule,2013-09-18 06:50:00,
2013-09-18 03:00:00,43.8,42.5,30.21,ENE,72,0.0,0.0,95,0.00,,,0.00,WeatherLinkWUIModule,2013-09-18 07:00:00,
2013-09-18 03:10:00,43.8,42.2,30.21,ENE,72,0.0,0.0,94,0.00,,,0.00,WeatherLinkWUIModule,2013-09-18 07:10:00,
2013-09-18 03:20:00,43.8,42.2,30.21,ENE,72,0.0,0.0,94,0.00,,,0.00,WeatherLinkWUIModule,2013-09-18 07:20:00,
2013-09-18 03:30:00,43.6,42.0,30.21,ENE,72,0.0,0.0,94,0.00,,,0.00,WeatherLinkWUIModule,2013-09-18 07:30:00,
2013-09-18 03:40:00,43.2,41.6,30.21,ENE,72,0.0,0.0,94,0.00,,,0.00,WeatherLinkWUIModule,2013-09-18 07:40:00,
2013-09-18 03:50:00,43.1,41.5,30.20,ENE,72,0.0,0.0,94,0.00,,,0.00,WeatherLinkWUIModule,2013-09-18 07:50:00,
2013-09-18 04:00:00,42.9,41.6,30.20,ENE,72,0.0,0.0,95,0.00,,,0.00,WeatherLinkWUIModule,2013-09-18 08:00:00,
2013-09-18 04:10:00,42.7,41.4,30.20,ENE,72,0.0,0.0,95,0.00,,,0.00,WeatherLinkWUIModule,2013-09-18 08:10:00,
2013-09-18 04:20:00,42.9,41.6,30.20,ENE,72,0.0,0.0,95,0.00,,,0.00,WeatherLinkWUIModule,2013-09-18 08:20:00,
2013-09-18 04:30:00,42.8,41.2,30.20,ENE,72,0.0,0.0,94,0.00,,,0.00,WeatherLinkWUIModule,2013-09-18 08:30:00,
2013-09-18 04:40:00,42.8,41.2,30.20,N/A,-327680,0.0,0.0,94,0.00,,,0.00,WeatherLinkWUIModule,2013-09-18 08:40:00,
2013-09-18 04:50:00,43.0,41.4,30.20,ENE,72,0.0,0.0,94,0.00,,,0.00,WeatherLinkWUIModule,2013-09-18 08:50:00,
2013-09-18 05:00:00,42.9,41.3,30.20,ENE,72,0.0,0.0,94,0.00,,,0.00,WeatherLinkWUIModule,2013-09-18 09:00:00,
2013-09-18 05:10:00,43.6,41.7,30.20,ENE,72,0.0,0.0,93,0.00,,,0.00,WeatherLinkWUIModule,2013-09-18 09:10:00,
2013-09-18 05:20:00,43.7,41.8,30.20,ENE,72,0.0,0.0,93,0.00,,,0.00,WeatherLinkWUIModule,2013-09-18 09:20:00,
2013-09-18 05:30:00,43.5,41.6,30.20,ENE,72,0.0,0.0,93,0.00,,,0.00,WeatherLinkWUIModule,2013-09-18 09:30:00,
2013-09-18 05:40:00,43.6,41.4,30.20,ENE,72,0.0,0.0,92,0.00,,,0.00,WeatherLinkWUIModule,2013-09-18 09:40:00,
2013-09-18 05:50:00,43.6,41.4,30.20,ENE,72,0.0,0.0,92,0.00,,,0.00,WeatherLinkWUIModule,2013-09-18 09:50:00,
2013-09-18 06:00:00,44.0,41.5,30.20,ENE,72,0.0,0.0,91,0.00,,,0.00,WeatherLinkWUIModule,2013-09-18 10:00:00,
2013-09-18 06:10:00,44.2,41.7,30.20,ENE,72,0.0,2.0,91,0.00,,,0.00,WeatherLinkWUIModule,2013-09-18 10:10:00,
2013-09-18 06:20:00,44.3,41.8,30.20,ENE,72,0.0,2.0,91,0.00,,,0.00,WeatherLinkWUIModule,2013-09-18 10:20:00,
2013-09-18 06:30:00,44.3,41.6,30.20,ENE,72,0.0,2.0,90,0.00,,,0.00,WeatherLinkWUIModule,2013-09-18 10:30:00,
2013-09-18 06:40:00,44.3,41.6,30.20,NNE,30,0.0,1.0,90,0.00,,,0.00,WeatherLinkWUIModule,2013-09-18 10:40:00,
2013-09-18 06:50:00,44.2,41.5,30.21,ENE,72,0.0,1.0,90,0.00,,,0.00,WeatherLinkWUIModule,2013-09-18 10:50:00,
2013-09-18 07:00:00,43.8,41.3,30.21,ENE,72,0.0,1.0,91,0.00,,,0.00,WeatherLinkWUIModule,2013-09-18 11:00:00,
2013-09-18 07:10:00,44.1,41.6,30.21,ENE,72,0.0,0.0,91,0.00,,,0.00,WeatherLinkWUIModule,2013-09-18 11:10:00,
2013-09-18 07:20:00,44.6,41.8,30.21,ENE,72,0.0,0.0,90,0.00,,,0.00,WeatherLinkWUIModule,2013-09-18 11:20:00,
2013-09-18 07:30:00,45.1,42.1,30.21,ENE,72,0.0,0.0,89,0.00,,,0.00,WeatherLinkWUIModule,2013-09-18 11:30:00,
2013-09-18 07:40:00,45.9,42.2,30.21,ENE,72,0.0,0.0,87,0.00,,,0.00,WeatherLinkWUIModule,2013-09-18 11:40:00,
2013-09-18 07:50:00,46.6,42.9,30.21,ENE,72,0.0,0.0,87,0.00,,,0.00,WeatherLinkWUIModule,2013-09-18 11:50:00,
2013-09-18 08:00:00,47.6,43.0,30.21,SW,232,2.0,0.0,84,0.00,,,0.00,WeatherLinkWUIModule,2013-09-18 12:00:00,
2013-09-18 08:10:00,48.3,43.4,30.21,SW,226,0.0,4.0,83,0.00,,,0.00,WeatherLinkWUIModule,2013-09-18 12:10:00,
2013-09-18 08:20:00,49.0,43.7,30.21,SSW,213,1.0,4.0,82,0.00,,,0.00,WeatherLinkWUIModule,2013-09-18 12:20:00,
2013-09-18 08:30:00,49.9,44.0,30.20,SW,216,0.0,4.0,80,0.00,,,0.00,WeatherLinkWUIModule,2013-09-18 12:30:00,
2013-09-18 08:40:00,50.6,44.0,30.20,SW,222,1.0,4.0,78,0.00,,,0.00,WeatherLinkWUIModule,2013-09-18 12:40:00,
2013-09-18 08:50:00,51.4,44.8,30.20,SW,226,0.0,4.0,78,0.00,,,0.00,WeatherLinkWUIModule,2013-09-18 12:50:00,
2013-09-18 09:00:00,52.1,44.8,30.20,SE,145,1.0,4.0,76,0.00,,,0.00,WeatherLinkWUIModule,2013-09-18 13:00:00,
2013-09-18 09:10:00,52.9,45.2,30.20,SW,230,2.0,4.0,75,0.00,,,0.00,WeatherLinkWUIModule,2013-09-18 13:10:00,
2013-09-18 09:20:00,53.7,45.2,30.20,West,269,2.0,4.0,73,0.00,,,0.00,WeatherLinkWUIModule,2013-09-18 13:20:00,
2013-09-18 09:30:00,54.5,45.7,30.20,WSW,254,2.0,4.0,72,0.00,,,0.00,WeatherLinkWUIModule,2013-09-18 13:30:00,
2013-09-18 09:40:00,55.3,46.1,30.20,West,259,0.0,7.0,71,0.00,,,0.00,WeatherLinkWUIModule,2013-09-18 13:40:00,
2013-09-18 09:50:00,56.2,46.9,30.19,SW,230,4.0,7.0,71,0.00,,,0.00,WeatherLinkWUIModule,2013-09-18 13:50:00,
2013-09-18 10:00:00,57.2,47.1,30.19,SSW,209,2.0,7.0,69,0.00,,,0.00,WeatherLinkWUIModule,2013-09-18 14:00:00,
2013-09-18 10:10:00,57.2,47.1,30.19,East,100,1.0,6.0,69,0.00,,,0.00,WeatherLinkWUIModule,2013-09-18 14:10:00,
2013-09-18 10:20:00,58.6,47.7,30.19,SSW,200,0.0,6.0,67,0.00,,,0.00,WeatherLinkWUIModule,2013-09-18 14:20:00,
2013-09-18 10:30:00,59.4,48.8,30.19,ESE,111,0.0,6.0,68,0.00,,,0.00,WeatherLinkWUIModule,2013-09-18 14:30:00,
2013-09-18 10:40:00,59.9,48.5,30.19,SSW,212,0.0,3.0,66,0.00,,,0.00,WeatherLinkWUIModule,2013-09-18 14:40:00,
2013-09-18 10:50:00,60.5,47.4,30.18,WNW,284,3.0,3.0,62,0.00,,,0.00,WeatherLinkWUIModule,2013-09-18 14:50:00,
2013-09-18 11:00:00,60.8,46.8,30.18,WSW,249,1.0,3.0,60,0.00,,,0.00,WeatherLinkWUIModule,2013-09-18 15:00:00,
2013-09-18 11:10:00,62.2,50.7,30.17,SSE,166,0.0,5.0,66,0.00,,,0.00,WeatherLinkWUIModule,2013-09-18 15:10:00,
2013-09-18 11:20:00,63.0,48.4,30.17,South,191,0.0,5.0,59,0.00,,,0.00,WeatherLinkWUIModule,2013-09-18 15:20:00,
2013-09-18 11:30:00,64.0,50.3,30.17,ENE,74,2.0,5.0,61,0.00,,,0.00,WeatherLinkWUIModule,2013-09-18 15:30:00,
2013-09-18 11:40:00,64.8,50.1,30.16,North,11,0.0,4.0,59,0.00,,,0.00,WeatherLinkWUIModule,2013-09-18 15:40:00,
2013-09-18 11:50:00,65.1,50.0,30.16,ESE,116,1.0,4.0,58,0.00,,,0.00,WeatherLinkWUIModule,2013-09-18 15:50:00,
2013-09-18 12:00:00,65.5,46.9,30.15,South,179,0.0,4.0,51,0.00,,,0.00,WeatherLinkWUIModule,2013-09-18 16:00:00,
2013-09-18 12:10:00,65.8,48.7,30.15,WSW,238,0.0,5.0,54,0.00,,,0.00,WeatherLinkWUIModule,2013-09-18 16:10:00,
2013-09-18 12:20:00,66.8,48.1,30.15,WSW,238,3.0,5.0,51,0.00,,,0.00,WeatherLinkWUIModule,2013-09-18 16:20:00,
2013-09-18 12:30:00,67.2,47.4,30.15,South,176,1.0,5.0,49,0.00,,,0.00,WeatherLinkWUIModule,2013-09-18 16:30:00,
2013-09-18 12:40:00,67.8,46.3,30.14,ESE,121,2.0,4.0,46,0.00,,,0.00,WeatherLinkWUIModule,2013-09-18 16:40:00,
2013-09-18 12:50:00,67.9,45.8,30.14,SW,218,2.0,4.0,45,0.00,,,0.00,WeatherLinkWUIModule,2013-09-18 16:50:00,
2013-09-18 13:00:00,68.7,45.3,30.14,ESE,115,3.0,4.0,43,0.00,,,0.00,WeatherLinkWUIModule,2013-09-18 17:00:00,
2013-09-18 13:10:00,68.9,45.5,30.14,SE,138,0.0,6.0,43,0.00,,,0.00,WeatherLinkWUIModule,2013-09-18 17:10:00,
2013-09-18 13:20:00,69.9,45.8,30.13,ENE,71,1.0,6.0,42,0.00,,,0.00,WeatherLinkWUIModule,2013-09-18 17:20:00,
2013-09-18 13:30:00,69.6,42.9,30.13,East,82,0.0,6.0,38,0.00,,,0.00,WeatherLinkWUIModule,2013-09-18 17:30:00,
2013-09-18 13:50:00,70.4,44.3,30.12,South,189,0.0,7.0,39,0.00,,,0.00,WeatherLinkWUIModule,2013-09-18 17:50:00,
2013-09-18 14:00:00,71.0,43.4,30.12,SE,134,0.0,7.0,37,0.00,,,0.00,WeatherLinkWUIModule,2013-09-18 18:00:00,
2013-09-18 14:10:00,71.3,41.5,30.11,South,173,0.0,6.0,34,0.00,,,0.00,WeatherLinkWUIModule,2013-09-18 18:10:00,
2013-09-18 14:20:00,71.2,42.9,30.11,ENE,60,0.0,6.0,36,0.00,,,0.00,WeatherLinkWUIModule,2013-09-18 18:20:00,
2013-09-18 14:30:00,71.2,41.4,30.11,ESE,104,1.0,6.0,34,0.00,,,0.00,WeatherLinkWUIModule,2013-09-18 18:30:00,
2013-09-18 14:40:00,71.1,44.2,30.10,ESE,104,2.0,5.0,38,0.00,,,0.00,WeatherLinkWUIModule,2013-09-18 18:40:00,
2013-09-18 14:50:00,71.1,44.9,30.10,SE,128,0.0,5.0,39,0.00,,,0.00,WeatherLinkWUIModule,2013-09-18 18:50:00,
2013-09-18 15:00:00,71.1,46.2,30.10,SE,128,0.0,5.0,41,0.00,,,0.00,WeatherLinkWUIModule,2013-09-18 19:00:00,
2013-09-18 15:10:00,71.4,42.3,30.09,East,96,0.0,3.0,35,0.00,,,0.00,WeatherLinkWUIModule,2013-09-18 19:10:00,
2013-09-18 15:20:00,72.3,45.9,30.09,East,79,0.0,3.0,39,0.00,,,0.00,WeatherLinkWUIModule,2013-09-18 19:20:00,
2013-09-18 15:30:00,72.8,43.5,30.09,WNW,299,2.0,3.0,35,0.00,,,0.00,WeatherLinkWUIModule,2013-09-18 19:30:00,
2013-09-18 15:40:00,72.2,41.5,30.08,WNW,285,0.0,6.0,33,0.00,,,0.00,WeatherLinkWUIModule,2013-09-18 19:40:00,
2013-09-18 15:51:00,70.8,45.3,30.08,WNW,286,0.0,6.0,40,0.00,,,0.00,WeatherLinkWUIModule,2013-09-18 19:51:00,
2013-09-18 16:00:00,70.6,50.5,30.08,NE,35,0.0,6.0,49,0.00,,,0.00,WeatherLinkWUIModule,2013-09-18 20:00:00,
2013-09-18 16:10:00,69.4,47.7,30.08,East,97,7.0,7.0,46,0.00,,,0.00,WeatherLinkWUIModule,2013-09-18 20:10:00,
2013-09-18 16:20:00,69.4,49.9,30.07,East,101,6.0,6.0,50,0.00,,,0.00,WeatherLinkWUIModule,2013-09-18 20:20:00,
2013-09-18 16:30:00,69.2,49.2,30.07,ESE,105,7.0,7.0,49,0.00,,,0.00,WeatherLinkWUIModule,2013-09-18 20:30:00,
2013-09-18 16:40:00,68.8,48.9,30.07,East,86,0.0,10.0,49,0.00,,,0.00,WeatherLinkWUIModule,2013-09-18 20:40:00,
2013-09-18 16:50:00,68.7,49.3,30.07,ESE,110,4.0,10.0,50,0.00,,,0.00,WeatherLinkWUIModule,2013-09-18 20:50:00,
2013-09-18 17:00:00,68.6,50.3,30.07,ENE,59,2.0,10.0,52,0.00,,,0.00,WeatherLinkWUIModule,2013-09-18 21:00:00,
2013-09-18 17:20:00,68.4,50.6,30.06,East,99,0.0,8.0,53,0.00,,,0.00,WeatherLinkWUIModule,2013-09-18 21:20:00,
2013-09-18 17:30:00,68.1,50.8,30.06,ENE,71,3.0,8.0,54,0.00,,,0.00,WeatherLinkWUIModule,2013-09-18 21:30:00,
2013-09-18 17:40:00,67.5,51.7,30.06,East,79,0.0,5.0,57,0.00,,,0.00,WeatherLinkWUIModule,2013-09-18 21:40:00,
2013-09-18 17:50:00,67.2,51.9,30.06,East,79,0.0,5.0,58,0.00,,,0.00,WeatherLinkWUIModule,2013-09-18 21:50:00,
2013-09-18 18:00:00,66.2,52.8,30.06,East,79,0.0,5.0,62,0.00,,,0.00,WeatherLinkWUIModule,2013-09-18 22:00:00,
2013-09-18 18:10:00,65.8,52.0,30.05,ESE,111,0.0,5.0,61,0.00,,,0.00,WeatherLinkWUIModule,2013-09-18 22:10:00,
2013-09-18 18:20:00,65.2,52.7,30.05,ESE,111,0.0,5.0,64,0.00,,,0.00,WeatherLinkWUIModule,2013-09-18 22:20:00,
2013-09-18 18:31:00,64.3,52.7,30.05,ESE,111,0.0,5.0,66,0.00,,,0.00,WeatherLinkWUIModule,2013-09-18 22:31:00,
2013-09-18 18:40:00,63.2,52.9,30.05,ESE,111,0.0,4.0,69,0.00,,,0.00,WeatherLinkWUIModule,2013-09-18 22:40:00,
2013-09-18 18:50:00,61.2,54.3,30.05,ESE,111,0.0,4.0,78,0.00,,,0.00,WeatherLinkWUIModule,2013-09-18 22:50:00,
2013-09-18 19:00:00,59.9,54.1,30.05,ESE,111,0.0,4.0,81,0.00,,,0.00,WeatherLinkWUIModule,2013-09-18 23:00:00,
2013-09-18 19:10:00,58.8,53.6,30.05,ESE,111,0.0,2.0,83,0.00,,,0.00,WeatherLinkWUIModule,2013-09-18 23:10:00,
2013-09-18 19:20:00,57.9,53.7,30.05,ESE,111,0.0,2.0,86,0.00,,,0.00,WeatherLinkWUIModule,2013-09-18 23:20:00,
2013-09-18 19:30:00,57.0,53.2,30.04,ESE,111,0.0,2.0,87,0.00,,,0.00,WeatherLinkWUIModule,2013-09-18 23:30:00,
2013-09-18 19:40:00,56.3,52.8,30.04,ESE,111,0.0,0.0,88,0.00,,,0.00,WeatherLinkWUIModule,2013-09-18 23:40:00,
2013-09-18 19:50:00,55.4,52.2,30.04,ESE,111,0.0,0.0,89,0.00,,,0.00,WeatherLinkWUIModule,2013-09-18 23:50:00,
2013-09-18 20:00:00,54.8,51.9,30.04,ESE,111,0.0,0.0,90,0.00,,,0.00,WeatherLinkWUIModule,2013-09-19 00:00:00,
2013-09-18 20:10:00,54.2,51.9,30.05,ESE,111,0.0,0.0,92,0.00,,,0.00,WeatherLinkWUIModule,2013-09-19 00:10:00,
2013-09-18 20:20:00,53.9,51.6,30.05,ESE,111,0.0,0.0,92,0.00,,,0.00,WeatherLinkWUIModule,2013-09-19 00:20:00,
2013-09-18 20:30:00,53.4,51.4,30.05,ESE,111,0.0,0.0,93,0.00,,,0.00,WeatherLinkWUIModule,2013-09-19 00:30:00,
2013-09-18 20:40:00,53.0,51.3,30.05,ESE,111,0.0,0.0,94,0.00,,,0.00,WeatherLinkWUIModule,2013-09-19 00:40:00,
2013-09-18 20:50:00,52.6,51.2,30.05,ESE,111,0.0,0.0,95,0.00,,,0.00,WeatherLinkWUIModule,2013-09-19 00:50:00,
2013-09-18 21:00:00,52.3,50.9,30.05,ESE,111,0.0,0.0,95,0.00,,,0.00,WeatherLinkWUIModule,2013-09-19 01:00:00,
2013-09-18 21:10:00,51.9,50.5,30.06,ESE,111,0.0,0.0,95,0.00,,,0.00,WeatherLinkWUIModule,2013-09-19 01:10:00,
2013-09-18 21:20:00,51.9,50.8,30.06,ESE,111,0.0,0.0,96,0.00,,,0.00,WeatherLinkWUIModule,2013-09-19 01:20:00,
2013-09-18 21:30:00,51.6,50.5,30.06,ESE,111,0.0,0.0,96,0.00,,,0.00,WeatherLinkWUIModule,2013-09-19 01:30:00,
2013-09-18 21:40:00,51.3,50.2,30.06,ESE,111,0.0,0.0,96,0.00,,,0.00,WeatherLinkWUIModule,2013-09-19 01:40:00,
2013-09-18 21:50:00,51.1,50.0,30.06,ESE,111,0.0,0.0,96,0.00,,,0.00,WeatherLinkWUIModule,2013-09-19 01:50:00,
2013-09-18 22:00:00,50.8,49.7,30.06,ESE,111,0.0,0.0,96,0.00,,,0.00,WeatherLinkWUIModule,2013-09-19 02:00:00,
2013-09-18 22:10:00,50.6,49.5,30.06,ESE,111,0.0,0.0,96,0.00,,,0.00,WeatherLinkWUIModule,2013-09-19 02:10:00,
2013-09-18 22:20:00,50.2,49.1,30.06,ESE,111,0.0,0.0,96,0.00,,,0.00,WeatherLinkWUIModule,2013-09-19 02:20:00,
2013-09-18 22:30:00,50.2,49.4,30.06,ESE,111,0.0,0.0,97,0.00,,,0.00,WeatherLinkWUIModule,2013-09-19 02:30:00,
2013-09-18 22:40:00,49.9,48.8,30.06,ESE,111,0.0,0.0,96,0.00,,,0.00,WeatherLinkWUIModule,2013-09-19 02:40:00,
2013-09-18 22:50:00,49.8,49.0,30.06,ESE,111,0.0,0.0,97,0.00,,,0.00,WeatherLinkWUIModule,2013-09-19 02:50:00,
2013-09-18 23:00:00,49.6,48.8,30.05,ESE,111,0.0,0.0,97,0.00,,,0.00,WeatherLinkWUIModule,2013-09-19 03:00:00,
2013-09-18 23:10:00,49.2,48.4,30.05,ESE,111,0.0,0.0,97,0.00,,,0.00,WeatherLinkWUIModule,2013-09-19 03:10:00,
2013-09-18 23:20:00,49.3,48.5,30.05,ESE,111,0.0,0.0,97,0.00,,,0.00,WeatherLinkWUIModule,2013-09-19 03:20:00,
2013-09-18 23:30:00,49.4,48.6,30.05,ESE,111,0.0,0.0,97,0.00,,,0.00,WeatherLinkWUIModule,2013-09-19 03:30:00,
2013-09-18 23:40:00,49.1,48.3,30.05,ESE,111,0.0,0.0,97,0.00,,,0.00,WeatherLinkWUIModule,2013-09-19 03:40:00,
2013-09-18 23:50:00,49.1,48.3,30.05,ESE,111,0.0,0.0,97,0.00,,,0.00,WeatherLinkWUIModule,2013-09-19 03:50:00,